Regional Weather Roundup
Issued by NWS

Home | Current Version | Previous Version | Text Only | Print | Product List | Glossary On
Versions: 1 2 3 4 5 6 7 8 9 10 11 12 13 14 15 16 17 18 19 20 21 22 23 24 25 26 27 28 29 30 31 32 33 34 35 36 37 38 39 40 41 42 43 44 45 46 47 48 49 50
000
ASUS43 KBIS 291320
RWRND

NORTH DAKOTA REGIONAL WEATHER ROUNDUP
NATIONAL WEATHER SERVICE BISMARCK ND
700 AM CST MON DEC 29 2014

NOTE: "FAIR" INDICATES FEW OR NO CLOUDS BELOW 12,000 FEET WITH NO
SIGNIFICANT WEATHER AND/OR OBSTRUCTIONS TO VISIBILITY.


NDZ001>003-009>011-017-291400-
NORTHWEST NORTH DAKOTA

CITY           SKY/WX    TMP DP  RH WIND       PRES   REMARKS
WILLISTON      MOCLDY   -11 -17  75 N8        30.65R WCI -28
MINOT          CLEAR    -13 -19  75 NW9       30.62R WCI -31
MINOT AFB      CLEAR    -18 -23  77 NW8       30.63R WCI -36
$$

NDZ018>021-031>035-040>046-291400-
SOUTHWEST NORTH DAKOTA

CITY           SKY/WX    TMP DP  RH WIND       PRES   REMARKS
BISMARCK       PTCLDY    -8 -14  74 N6        30.62R WCI -21
DICKINSON      MOCLDY    -7 -13  75 N5        30.51R WCI -18
GARRISON         N/A    -11 -16  78 N8        30.59R WCI -28
HETTINGER ARPT CLOUDY    -1  -5  82 N6        30.50R WCI -13
$$

NDZ004>008-012>016-024-026-027-054-291400-
NORTHEAST NORTH DAKOTA

CITY           SKY/WX    TMP DP  RH WIND       PRES   REMARKS
GRAND FORKS    CLEAR    -14 -20  74 NW7       30.67R WCI -30
GRND FRKS AFB  PTCLDY   -14 -19  77 N8        30.66R WCI -31
DEVILS LAKE    PTCLDY   -15 -26  58 NW6       30.60R WCI -29
$$

NDZ022-023-025-028>030-036>039-047>053-291400-
SOUTHEAST NORTH DAKOTA

CITY           SKY/WX    TMP DP  RH WIND       PRES   REMARKS
FARGO          CLEAR     -8 -14  74 N12       30.64R WCI -27
JAMESTOWN      PTCLDY   -10 -16  74 NW10      30.59R WCI -29
$$



USA.gov is the U.S. government's official web portal to all federal, state and local government web resources and services.